This is the latest recevied weather packets stored in our database for station/object W6ORV. If no packets are shown the sender has not sent any weather packets the latest 10 day(s).
| Time | Temp. | Humidity | Pressure | Rain* | Wind** | Luminosity | Snow |
|---|---|---|---|---|---|---|---|
| 1778282197 | 32.78° C | 17% | 4298.5 hPa | 0 mm | - | 582 W/m² | - |
| 1778281893 | 32.78° C | 19% | 4298.6 hPa | 0 mm | - | 598 W/m² | - |
| 1778281590 | 33.33° C | 18% | 4298.7 hPa | 0 mm | - | 604 W/m² | - |
| 1778281286 | 32.78° C | 18% | 4298.5 hPa | 0 mm | - | 615 W/m² | - |
| 1778280985 | 32.78° C | 18% | 4298.7 hPa | 0 mm | - | 636 W/m² | - |
| 1778280681 | 32.78° C | 19% | 4298.7 hPa | 0 mm | - | 646 W/m² | - |
| 1778280379 | 32.22° C | 18% | 4298.8 hPa | 0 mm | - | 615 W/m² | - |
| 1778280076 | 32.22° C | 19% | 4298.8 hPa | 0 mm | - | 627 W/m² | - |
| 1778279774 | 32.78° C | 18% | 4299 hPa | 0 mm | - | 656 W/m² | - |
| 1778279470 | 32.78° C | 18% | 4298.9 hPa | 0 mm | - | 669 W/m² | - |
| 1778279168 | 32.22° C | 20% | 4299 hPa | 0 mm | - | 673 W/m² | - |
| 1778278865 | 32.78° C | 18% | 4299.1 hPa | 0 mm | - | 683 W/m² | - |
| 1778278561 | 32.22° C | 20% | 4299 hPa | 0 mm | - | 696 W/m² | - |
| 1778278257 | 32.22° C | 23% | 4299.3 hPa | 0 mm | - | 709 W/m² | - |
| 1778277954 | 32.22° C | 23% | 4299.1 hPa | 0 mm | - | 698 W/m² | - |
| 1778277649 | 31.67° C | 22% | 4299.3 hPa | 0 mm | - | 663 W/m² | - |
| 1778277347 | 31.67° C | 23% | 4299.4 hPa | 0 mm | - | 659 W/m² | - |
| 1778277044 | 31.67° C | 28% | 4299.4 hPa | 0 mm | - | 708 W/m² | - |
| 1778276741 | 31.67° C | 28% | 4299.5 hPa | 0 mm | - | 730 W/m² | - |
| 1778276437 | 31.67° C | 30% | 4299.8 hPa | 0 mm | - | 734 W/m² | - |
| 1778276135 | 31.67° C | 28% | 4299.6 hPa | 0 mm | - | 742 W/m² | - |
| 1778275830 | 31.11° C | 31% | 4299.4 hPa | 0 mm | - | 747 W/m² | - |
| 1778275527 | 31.11° C | 31% | 4299.7 hPa | 0 mm | - | 753 W/m² | - |
| 1778275223 | 30.56° C | 35% | 4299.9 hPa | 0 mm | - | 735 W/m² | - |
| 1778274919 | 30° C | 36% | 4300 hPa | 0 mm | - | 749 W/m² | - |
* Rain latest hour (hover to see other rain measurements)
** Current wind speed in m/s (hover to see current wind gust speed)